Location: Heisede
(52.2582°N, 9.8523°E)
Time: 07:20:35
(UTC+00:00)

Cosmos 2228 Rocket - Pass Details

Date: 13 January 2026
Orbit: 612 x 647 km, 82.5° (Epoch: 18 February)

Event Time Altitude Azimuth Distance (km) Brightness Sun altitude
Rises 06:38:18 0° 344° (NNW) 2,911 6.1 -6.9°
Reaches altitude 10° 06:40:37 10° 337° (NNW) 1,995 5.2 -6.6°
Maximum altitude 06:44:46 41° 267° (W) 894 3.5 -6.0°
Drops below altitude 10° 06:48:52 10° 198° (SSW) 1,968 5.8 -5.5°
Sets 06:51:09 0° 191° (S) 2,867 6.7 -5.2°
